Погода в Глендейле

США     33°32′16″N   112°17′22″W
темп.,
°C
ветер,
м/с
пор.,
м/с
влажн.,
%
обл.,
%
осадки,
мм/ч
давл.,
гПа
погр.,
м
21 октября, чт
чт2123:00+25сз22230 0.0 101648
02:00+23ссз12240 0.0 101625
05:00+22с23230 0.0 101663
08:00+23св22215 0.0 1018142
11:00+26св11175 0.0 1018516
14:00+29ссз11145 0.0 1015702
17:00+30зсз22155 0.0 1014672
20:00+28з22185 0.0 101560
22 октября, пт
пт2223:00+26сз221834 0.0 101430
02:00+25сз1118100 0.0 101318
05:00+24с1119100 0.0 101222
08:00+24св11198 0.0 101379
11:00+28юв22155 0.0 1012640
14:00+30ююз12140 0.0 10091286
17:00+31з33143 0.0 10071743
20:00+28зюз231610 0.0 100891
23 октября, сб
сб2323:00+26зюз23186 0.0 100791
02:00+24юз2420100 0.0 1007123
05:00+23зюз24205 0.0 1007147
08:00+23ююз1221100 0.0 1008154
11:00+26ю1218100 0.0 10081001
14:00+28юз571896 0.0 10051993
17:00+28зюз57220 0.0 10041669
20:00+25з23276 0.0 1005386
24 октября, вс
вс2423:00+24юз232943 0.0 1006191
02:00+22ююз3432100 0.0 1006200
05:00+21юз23374 0.0 1007169
08:00+22вюв113517 0.0 1009309
11:00+24ююв12285 0.0 10101141
14:00+26юз122333 0.0 10081777
17:00+27ююз132481 0.0 10071611
20:00+26юз1127100 0.0 1008727
25 октября, пн
пн2523:00+25юз243290 0.0 1009241
02:00+23зюз343924 0.0 1009187
05:00+22з124319 0.0 1009147
08:00+23з11412 0.0 1010225
11:00+25юз33333 0.0 10101104
14:00+28юз56240 0.0 10081542
17:00+28зюз67300 0.0 10081618
20:00+26юз47370 0.0 1009808